Starlink 31187

operational
NORAD ID: 58790 Int'l Des: 2024-012 Owner: SPXS Country: US Constellation: starlink
LEOCIRCULAR

About Starlink 31187

Description loading...

Live Position

Loading 3D Globe...

Upcoming Passes

Altitude History

Altitude vs Time

uPlot chart will show altitude changes over time

Two-Line Element Set

1 58790U 24012D 25257.22386998 .00000731 00000-0 36082-4 0 9990
2 58790 43.0030 82.2007 0000987 263.7733 96.3007 15.27569007 94241
Epoch: Sep 14, 2025 • Age: 45 hours

Current Status

Altitude 495.6 km
Velocity 7.62 km/s
Sub-Earth Point -42.74°S, 41.72°W
Launch Date Jan 15, 2024
Age 1.6 years
Type internet

Technical Details

Classification Payload
Mass 730.00 kg
Dry Mass 700.00 kg
Total Mass 730.00 kg
Length 0.30 m
Diameter 4.10 m
Span 29.00 m
Shape Box + pan
Manufacturer SPXS
Bus Type Starlink V2M
Phase Status In Orbit
Owner/State SPXS/US

Large Constellations

Loading constellations...